CFG303 GCTS-EDDF

Flight info

Callsign CFG303
Flight time 4h 41m
Altitude 37000
Route VAST1E VASTO UN858 AKUDA OBOLO PESAS OSLEP N858 OXACA M30 HIJ N10 VTB N871 TOPTU TOU GAI MEN NINUN LATAM ETREK LTP SOPLO OMASI KINNI SOSAL KORED BERSU DITON LADOL T163 EMPAX EMPA5B
Aircraft A321/M-V/N

Departure

Time 2026-04-14 08:33
Airport Tenerife Sur Airport (GCTS)

Arrival

Time 2026-04-14 13:14
Airport Frankfurt Main Airport (EDDF)
Time Latitude Longitude Altitude Speed Heading
2026-04-14 08:23 28.04700 -16.57733 200 ft 0 kts 340°
2026-04-14 08:25 28.04690 -16.57730 214 ft 3 kts 338°
2026-04-14 08:25 28.04672 -16.57721 204 ft 3 kts 332°
2026-04-14 08:26 28.04654 -16.57709 212 ft 3 kts 323°
2026-04-14 08:26 28.04639 -16.57694 205 ft 3 kts 307°
2026-04-14 08:26 28.04630 -16.57676 202 ft 3 kts 276°
2026-04-14 08:26 28.04630 -16.57663 205 ft 0 kts 251°
2026-04-14 08:28 28.04627 -16.57672 209 ft 4 kts 251°
2026-04-14 08:29 28.04602 -16.57702 208 ft 7 kts 190°
2026-04-14 08:29 28.04543 -16.57687 204 ft 10 kts 160°
2026-04-14 08:29 28.04474 -16.57710 207 ft 13 kts 234°
2026-04-14 08:29 28.04436 -16.57811 199 ft 15 kts 248°
2026-04-14 08:30 28.04393 -16.57933 198 ft 18 kts 248°
2026-04-14 08:30 28.04345 -16.58073 203 ft 20 kts 248°
2026-04-14 08:30 28.04291 -16.58231 202 ft 23 kts 248°
2026-04-14 08:30 28.04229 -16.58409 200 ft 25 kts 249°
2026-04-14 08:31 28.04172 -16.58601 200 ft 25 kts 251°
2026-04-14 08:31 28.04025 -16.58768 206 ft 13 kts 134°
2026-04-14 08:31 28.04001 -16.58681 203 ft 11 kts 101°
2026-04-14 08:32 28.03991 -16.58580 200 ft 17 kts 89°
2026-04-14 08:32 28.04037 -16.58416 200 ft 29 kts 68°
2026-04-14 08:32 28.04170 -16.58041 206 ft 81 kts 68°
2026-04-14 08:32 28.04451 -16.57239 213 ft 136 kts 68°
2026-04-14 08:33 28.04851 -16.56114 393 ft 161 kts 68°
2026-04-14 08:33 28.05287 -16.54951 965 ft 164 kts 66°
2026-04-14 08:33 28.05735 -16.53751 1578 ft 164 kts 64°
2026-04-14 08:33 28.06168 -16.52563 1965 ft 169 kts 65°
2026-04-14 08:34 28.06600 -16.51299 2298 ft 177 kts 65°
2026-04-14 08:34 28.07044 -16.49955 2556 ft 187 kts 65°
2026-04-14 08:34 28.07510 -16.48556 2904 ft 193 kts 65°
2026-04-14 08:34 28.08011 -16.47091 3132 ft 207 kts 65°
2026-04-14 08:35 28.08525 -16.45513 3469 ft 219 kts 71°
2026-04-14 08:35 28.08757 -16.43742 3751 ft 240 kts 84°
2026-04-14 08:35 28.08838 -16.41820 4300 ft 245 kts 82°
2026-04-14 08:35 28.08958 -16.39860 4799 ft 256 kts 83°
2026-04-14 08:36 28.09087 -16.37829 5419 ft 259 kts 82°
2026-04-14 08:36 28.09230 -16.35788 6090 ft 261 kts 82°
2026-04-14 08:36 28.09384 -16.33748 6836 ft 259 kts 83°
2026-04-14 08:36 28.09553 -16.31732 7396 ft 263 kts 82°
2026-04-14 08:37 28.09731 -16.29648 7945 ft 267 kts 82°
2026-04-14 08:37 28.09905 -16.27531 8490 ft 271 kts 82°
2026-04-14 08:37 28.10072 -16.25375 8985 ft 278 kts 82°
2026-04-14 08:37 28.10236 -16.23168 9481 ft 284 kts 82°
2026-04-14 08:38 28.10399 -16.20919 10018 ft 289 kts 83°
2026-04-14 08:38 28.10566 -16.18631 10425 ft 297 kts 83°
2026-04-14 08:38 28.10743 -16.16221 10540 ft 316 kts 84°
2026-04-14 08:38 28.10930 -16.13667 10662 ft 334 kts 84°
2026-04-14 08:39 28.11124 -16.10978 10782 ft 351 kts 83°
2026-04-14 08:39 28.11325 -16.08152 10898 ft 368 kts 83°
2026-04-14 08:39 28.11535 -16.05204 11015 ft 383 kts 83°
2026-04-14 08:39 28.11699 -16.02153 11272 ft 392 kts 90°
2026-04-14 08:40 28.11530 -15.99051 11684 ft 397 kts 93°
2026-04-14 08:40 28.11319 -15.95925 12141 ft 399 kts 93°
2026-04-14 08:40 28.11107 -15.92778 12578 ft 402 kts 94°
2026-04-14 08:40 28.10966 -15.90686 12845 ft 404 kts 93°
2026-04-14 08:41 28.10755 -15.87501 13255 ft 407 kts 93°
2026-04-14 08:41 28.10543 -15.84298 13659 ft 409 kts 92°
2026-04-14 08:41 28.10328 -15.81076 14038 ft 412 kts 93°
2026-04-14 08:41 28.10037 -15.76769 14490 ft 415 kts 93°
2026-04-14 08:42 28.09887 -15.74560 14720 ft 416 kts 94°
2026-04-14 08:42 28.09667 -15.71287 15050 ft 418 kts 93°
2026-04-14 08:42 28.09445 -15.67991 15399 ft 420 kts 93°
2026-04-14 08:42 28.09218 -15.64681 15738 ft 423 kts 94°
2026-04-14 08:43 28.08987 -15.61347 16057 ft 426 kts 94°
2026-04-14 08:43 28.08755 -15.57995 16383 ft 428 kts 94°
2026-04-14 08:43 28.08519 -15.54624 16716 ft 431 kts 94°
2026-04-14 08:43 28.08320 -15.51281 17037 ft 433 kts 89°
2026-04-14 08:44 28.08605 -15.47889 17349 ft 434 kts 77°
2026-04-14 08:44 28.09526 -15.44641 17667 ft 435 kts 65°
2026-04-14 08:44 28.11045 -15.41672 17979 ft 436 kts 52°
2026-04-14 08:44 28.13085 -15.39127 18307 ft 438 kts 40°
2026-04-14 08:45 28.15541 -15.37087 18615 ft 439 kts 33°
2026-04-14 08:45 28.18106 -15.35182 18897 ft 442 kts 32°
2026-04-14 08:45 28.20686 -15.33267 19182 ft 444 kts 32°
2026-04-14 08:45 28.23279 -15.31340 19467 ft 447 kts 32°
2026-04-14 08:46 28.25885 -15.29401 19738 ft 449 kts 33°
2026-04-14 08:46 28.28502 -15.27450 20021 ft 451 kts 32°
2026-04-14 08:46 28.31137 -15.25486 20304 ft 453 kts 33°
2026-04-14 08:46 28.33745 -15.23540 20564 ft 456 kts 33°
2026-04-14 08:47 28.36402 -15.21555 20857 ft 458 kts 33°
2026-04-14 08:47 28.39072 -15.19561 21123 ft 461 kts 33°
2026-04-14 08:47 28.41756 -15.17561 21396 ft 463 kts 33°
2026-04-14 08:47 28.44456 -15.15550 21659 ft 465 kts 33°
2026-04-14 08:48 28.47167 -15.13525 21953 ft 468 kts 33°
2026-04-14 08:48 28.49890 -15.11485 22212 ft 470 kts 33°
2026-04-14 08:48 28.52627 -15.09436 22457 ft 472 kts 33°
2026-04-14 08:48 28.55375 -15.07379 22759 ft 474 kts 33°
2026-04-14 08:49 28.58135 -15.05310 22996 ft 476 kts 33°
2026-04-14 08:49 28.60907 -15.03228 23274 ft 478 kts 33°
2026-04-14 08:49 28.63690 -15.01138 23524 ft 480 kts 33°
2026-04-14 08:49 28.66483 -14.99038 23753 ft 483 kts 33°
2026-04-14 08:50 28.69290 -14.96922 23985 ft 484 kts 33°
2026-04-14 08:50 28.72105 -14.94798 24227 ft 485 kts 33°
2026-04-14 08:50 28.74920 -14.92677 24499 ft 486 kts 33°
2026-04-14 08:50 28.77750 -14.90545 24696 ft 488 kts 33°
2026-04-14 08:51 28.80587 -14.88406 24931 ft 490 kts 33°
2026-04-14 08:51 28.83426 -14.86267 25286 ft 488 kts 33°
2026-04-14 08:51 28.86256 -14.84134 25606 ft 487 kts 33°
2026-04-14 08:51 28.89075 -14.82006 25975 ft 485 kts 33°
2026-04-14 08:52 28.91858 -14.79904 26276 ft 485 kts 33°
2026-04-14 08:52 28.94662 -14.77783 26600 ft 484 kts 33°
2026-04-14 08:52 28.97466 -14.75660 26928 ft 483 kts 33°
2026-04-14 08:52 29.00262 -14.73543 27230 ft 482 kts 33°
2026-04-14 08:53 29.03056 -14.71425 27584 ft 481 kts 33°
2026-04-14 08:53 29.05844 -14.69307 27873 ft 480 kts 32°
2026-04-14 08:53 29.08621 -14.67197 28191 ft 479 kts 33°
2026-04-14 08:53 29.11401 -14.65087 28500 ft 478 kts 33°
2026-04-14 08:54 29.14172 -14.62984 28798 ft 478 kts 33°
2026-04-14 08:54 29.16903 -14.60910 29102 ft 477 kts 33°
2026-04-14 08:54 29.19664 -14.58808 29388 ft 476 kts 33°
2026-04-14 08:54 29.22420 -14.56707 29710 ft 475 kts 32°
2026-04-14 08:55 29.25168 -14.54612 30016 ft 474 kts 33°
2026-04-14 08:55 29.27908 -14.52523 30320 ft 473 kts 32°
2026-04-14 08:55 29.30644 -14.50439 30586 ft 472 kts 33°
2026-04-14 08:55 29.33372 -14.48360 30814 ft 471 kts 32°
2026-04-14 08:56 29.36099 -14.46280 31080 ft 470 kts 32°
2026-04-14 08:56 29.38818 -14.44203 31313 ft 469 kts 33°
2026-04-14 08:56 29.41531 -14.42125 31591 ft 468 kts 32°
2026-04-14 08:56 29.44234 -14.40051 31839 ft 467 kts 33°
2026-04-14 08:57 29.46931 -14.37982 32074 ft 466 kts 32°
2026-04-14 08:57 29.49630 -14.35914 32328 ft 465 kts 32°
2026-04-14 08:57 29.52321 -14.33856 32563 ft 465 kts 32°
2026-04-14 08:57 29.55009 -14.31797 32811 ft 464 kts 32°
2026-04-14 08:58 29.57657 -14.29766 33049 ft 463 kts 33°
2026-04-14 08:58 29.60333 -14.27709 33299 ft 462 kts 33°
2026-04-14 08:58 29.63009 -14.25649 33535 ft 461 kts 32°
2026-04-14 08:58 29.65674 -14.23599 33742 ft 462 kts 33°
2026-04-14 08:59 29.68344 -14.21544 33950 ft 461 kts 31°
2026-04-14 08:59 29.71009 -14.19492 34161 ft 461 kts 32°
2026-04-14 08:59 29.73668 -14.17444 34365 ft 460 kts 32°
2026-04-14 08:59 29.76323 -14.15397 34531 ft 460 kts 32°
2026-04-14 09:00 29.77992 -14.14110 34640 ft 459 kts 32°
2026-04-14 09:01 29.80442 -14.12273 34785 ft 458 kts 31°
2026-04-14 09:01 29.83099 -14.10241 34924 ft 459 kts 32°
2026-04-14 09:01 29.85715 -14.08203 35058 ft 459 kts 32°
2026-04-14 09:01 29.88354 -14.06134 35214 ft 459 kts 33°
2026-04-14 09:02 29.90997 -14.04059 35350 ft 459 kts 33°
2026-04-14 09:02 29.93638 -14.01993 35511 ft 459 kts 32°
2026-04-14 09:02 29.96286 -13.99933 35647 ft 459 kts 31°
2026-04-14 09:02 29.98932 -13.97880 35791 ft 459 kts 32°
2026-04-14 09:03 30.01582 -13.95827 35945 ft 458 kts 33°
2026-04-14 09:03 30.04230 -13.93776 36081 ft 458 kts 32°
2026-04-14 09:03 30.06875 -13.91731 36219 ft 458 kts 31°
2026-04-14 09:03 30.09524 -13.89677 36340 ft 458 kts 32°
2026-04-14 09:04 30.12161 -13.87626 36478 ft 457 kts 31°
2026-04-14 09:04 30.14798 -13.85571 36604 ft 457 kts 31°
2026-04-14 09:04 30.17438 -13.83513 36746 ft 456 kts 33°
2026-04-14 09:04 30.20071 -13.81459 36882 ft 456 kts 31°
2026-04-14 09:05 30.22697 -13.79410 37023 ft 455 kts 30°
2026-04-14 09:05 30.25313 -13.77368 37176 ft 454 kts 30°
2026-04-14 09:05 30.30559 -13.73266 37215 ft 457 kts 31°
2026-04-14 09:06 30.35820 -13.69152 37221 ft 460 kts 31°
2026-04-14 09:06 30.41124 -13.65000 37220 ft 461 kts 31°
2026-04-14 09:07 30.46438 -13.60832 37216 ft 461 kts 32°
2026-04-14 09:07 30.51738 -13.56668 37215 ft 460 kts 32°
2026-04-14 09:08 30.57027 -13.52481 37226 ft 460 kts 33°
2026-04-14 09:08 30.62296 -13.48260 37232 ft 460 kts 32°
2026-04-14 09:09 30.67574 -13.44043 37228 ft 460 kts 32°
2026-04-14 09:09 30.72848 -13.39838 37233 ft 460 kts 30°
2026-04-14 09:10 30.78117 -13.35626 37230 ft 460 kts 32°
2026-04-14 09:10 30.83391 -13.31408 37239 ft 460 kts 31°
2026-04-14 09:11 30.88665 -13.27191 37238 ft 460 kts 32°
2026-04-14 09:11 30.93907 -13.22994 37232 ft 460 kts 32°
2026-04-14 09:12 30.99190 -13.18785 37238 ft 460 kts 30°
2026-04-14 09:12 31.04482 -13.14588 37239 ft 460 kts 32°
2026-04-14 09:13 31.09782 -13.10380 37249 ft 460 kts 30°
2026-04-14 09:13 31.15059 -13.06171 37250 ft 459 kts 31°
2026-04-14 09:14 31.20335 -13.01948 37248 ft 459 kts 32°
2026-04-14 09:14 31.25609 -12.97731 37245 ft 459 kts 31°
2026-04-14 09:15 31.30881 -12.93514 37246 ft 459 kts 32°
2026-04-14 09:15 31.36160 -12.89291 37243 ft 459 kts 32°
2026-04-14 09:16 31.41393 -12.85085 37244 ft 459 kts 32°
2026-04-14 09:16 31.46656 -12.80838 37250 ft 459 kts 31°
2026-04-14 09:17 31.51920 -12.76592 37260 ft 459 kts 31°
2026-04-14 09:17 31.57183 -12.72356 37261 ft 458 kts 31°
2026-04-14 09:18 31.62430 -12.68118 37256 ft 458 kts 31°
2026-04-14 09:18 31.67670 -12.63877 37270 ft 457 kts 32°
2026-04-14 09:19 31.72901 -12.59631 37264 ft 457 kts 32°
2026-04-14 09:19 31.78102 -12.55421 37267 ft 457 kts 32°
2026-04-14 09:20 31.83325 -12.51176 37273 ft 456 kts 31°
2026-04-14 09:20 31.88549 -12.46935 37253 ft 456 kts 31°
2026-04-14 09:21 31.93767 -12.42691 37258 ft 456 kts 31°
2026-04-14 09:21 31.98979 -12.38439 37279 ft 455 kts 31°
2026-04-14 09:22 32.04181 -12.34199 37277 ft 454 kts 32°
2026-04-14 09:22 32.09381 -12.29963 37270 ft 454 kts 32°
2026-04-14 09:23 32.14577 -12.25739 37275 ft 454 kts 32°
2026-04-14 09:23 32.19771 -12.21502 37275 ft 454 kts 32°
2026-04-14 09:24 32.24926 -12.17287 37274 ft 453 kts 31°
2026-04-14 09:24 32.30107 -12.13034 37273 ft 453 kts 33°
2026-04-14 09:25 32.35284 -12.08780 37281 ft 453 kts 31°
2026-04-14 09:25 32.40456 -12.04533 37285 ft 452 kts 31°
2026-04-14 09:26 32.45626 -12.00295 37287 ft 452 kts 32°
2026-04-14 09:26 32.50782 -11.96042 37289 ft 451 kts 31°
2026-04-14 09:27 32.55931 -11.91796 37288 ft 451 kts 32°
2026-04-14 09:27 32.61079 -11.87551 37309 ft 450 kts 32°
2026-04-14 09:28 32.66211 -11.83305 37295 ft 449 kts 32°
2026-04-14 09:28 32.71333 -11.79060 37299 ft 448 kts 31°
2026-04-14 09:29 32.76447 -11.74809 37295 ft 448 kts 32°
2026-04-14 09:29 32.81555 -11.70558 37293 ft 448 kts 32°
2026-04-14 09:30 32.86659 -11.66310 37293 ft 448 kts 31°
2026-04-14 09:30 32.91766 -11.62060 37293 ft 448 kts 32°
2026-04-14 09:31 32.96837 -11.57828 37298 ft 448 kts 32°
2026-04-14 09:31 33.01942 -11.53564 37297 ft 448 kts 32°
2026-04-14 09:32 33.07052 -11.49293 37298 ft 448 kts 32°
2026-04-14 09:33 33.14701 -11.42872 37297 ft 448 kts 32°
2026-04-14 09:33 33.19760 -11.38608 37305 ft 448 kts 33°
2026-04-14 09:34 33.24843 -11.34300 37305 ft 448 kts 32°
2026-04-14 09:34 33.29925 -11.30000 37317 ft 447 kts 32°
2026-04-14 09:35 33.34145 -11.26420 37310 ft 446 kts 32°
2026-04-14 09:35 33.39198 -11.22113 37312 ft 446 kts 33°
2026-04-14 09:36 33.44245 -11.17799 37313 ft 445 kts 33°
2026-04-14 09:36 33.49287 -11.13495 37311 ft 445 kts 33°
2026-04-14 09:37 33.54327 -11.09195 37310 ft 445 kts 33°
2026-04-14 09:37 33.59370 -11.04882 37309 ft 445 kts 33°
2026-04-14 09:38 33.64412 -11.00563 37311 ft 445 kts 33°
2026-04-14 09:38 33.69454 -10.96242 37311 ft 445 kts 33°
2026-04-14 09:39 33.74494 -10.91904 37330 ft 445 kts 33°
2026-04-14 09:39 33.79492 -10.87592 37323 ft 444 kts 32°
2026-04-14 09:40 33.84515 -10.83266 37325 ft 444 kts 32°
2026-04-14 09:40 33.89533 -10.78932 37321 ft 443 kts 33°
2026-04-14 09:41 33.94546 -10.74601 37314 ft 443 kts 32°
2026-04-14 09:41 33.99555 -10.70271 37315 ft 443 kts 33°
2026-04-14 09:42 34.04564 -10.65924 37328 ft 443 kts 32°
2026-04-14 09:42 34.09573 -10.61585 37323 ft 443 kts 32°
2026-04-14 09:43 34.14574 -10.57236 37329 ft 443 kts 32°
2026-04-14 09:43 34.19563 -10.52881 37333 ft 442 kts 33°
2026-04-14 09:44 34.24552 -10.48514 37334 ft 442 kts 32°
2026-04-14 09:44 34.29492 -10.44197 37344 ft 441 kts 32°
2026-04-14 09:45 34.34479 -10.39846 37333 ft 441 kts 32°
2026-04-14 09:45 34.39450 -10.35495 37334 ft 440 kts 32°
2026-04-14 09:46 34.44409 -10.31143 37325 ft 440 kts 32°
2026-04-14 09:46 34.49335 -10.26812 37336 ft 440 kts 32°
2026-04-14 09:47 34.54283 -10.22462 37334 ft 439 kts 33°
2026-04-14 09:47 34.59230 -10.18103 37343 ft 439 kts 32°
2026-04-14 09:48 34.64152 -10.13752 37351 ft 437 kts 32°
2026-04-14 09:48 34.69079 -10.09421 37345 ft 436 kts 32°
2026-04-14 09:49 34.73998 -10.05110 37336 ft 435 kts 32°
2026-04-14 09:49 34.78901 -10.00787 37332 ft 435 kts 32°
2026-04-14 09:50 34.83801 -9.96449 37335 ft 435 kts 32°
2026-04-14 09:50 34.88672 -9.92149 37341 ft 435 kts 32°
2026-04-14 09:51 34.93576 -9.87814 37341 ft 435 kts 32°
2026-04-14 09:51 34.98477 -9.83475 37337 ft 435 kts 32°
2026-04-14 09:52 35.03360 -9.79130 37349 ft 434 kts 32°
2026-04-14 09:52 35.08233 -9.74795 37346 ft 433 kts 32°
2026-04-14 09:53 35.13101 -9.70467 37348 ft 433 kts 32°
2026-04-14 09:53 35.17964 -9.66129 37346 ft 432 kts 32°
2026-04-14 09:54 35.22820 -9.61795 37346 ft 432 kts 32°
2026-04-14 09:54 35.27635 -9.57477 37342 ft 432 kts 32°
2026-04-14 09:55 35.32481 -9.53127 37342 ft 432 kts 32°
2026-04-14 09:55 35.37333 -9.48780 37342 ft 432 kts 32°
2026-04-14 09:56 35.42183 -9.44427 37361 ft 432 kts 32°
2026-04-14 09:56 35.47019 -9.40068 37352 ft 431 kts 32°
2026-04-14 09:57 35.51846 -9.35718 37351 ft 430 kts 32°
2026-04-14 09:57 35.56671 -9.31369 37349 ft 430 kts 32°
2026-04-14 09:58 35.61491 -9.27013 37348 ft 430 kts 32°
2026-04-14 09:58 35.66276 -9.22677 37348 ft 430 kts 32°
2026-04-14 09:59 35.71093 -9.18309 37347 ft 430 kts 32°
2026-04-14 09:59 35.75908 -9.13940 37347 ft 430 kts 32°
2026-04-14 10:00 35.80716 -9.09572 37346 ft 430 kts 32°
2026-04-14 10:00 35.85523 -9.05191 37357 ft 429 kts 32°
2026-04-14 10:01 35.90305 -9.00815 37352 ft 428 kts 32°
2026-04-14 10:01 35.95084 -8.96442 37352 ft 427 kts 32°
2026-04-14 10:02 35.99329 -8.91220 37340 ft 435 kts 44°
2026-04-14 10:02 36.03244 -8.85592 37337 ft 435 kts 44°
2026-04-14 10:03 36.07180 -8.79924 37335 ft 435 kts 44°
2026-04-14 10:03 36.11126 -8.74255 37335 ft 435 kts 44°
2026-04-14 10:04 36.15070 -8.68586 37354 ft 434 kts 44°
2026-04-14 10:04 36.19000 -8.62913 37353 ft 433 kts 44°
2026-04-14 10:05 36.22922 -8.57245 37348 ft 433 kts 43°
2026-04-14 10:05 36.26837 -8.51582 37343 ft 432 kts 44°
2026-04-14 10:06 36.30741 -8.45922 37332 ft 432 kts 44°
2026-04-14 10:06 36.34617 -8.40287 37337 ft 432 kts 44°
2026-04-14 10:07 36.38519 -8.34615 37330 ft 432 kts 44°
2026-04-14 10:07 36.42403 -8.28960 37330 ft 429 kts 43°
2026-04-14 10:08 36.46275 -8.23305 37326 ft 429 kts 43°
2026-04-14 10:08 36.50136 -8.17648 37333 ft 429 kts 43°
2026-04-14 10:09 36.53992 -8.11985 37332 ft 428 kts 43°
2026-04-14 10:09 36.57829 -8.06365 37325 ft 428 kts 43°
2026-04-14 10:10 36.61682 -8.00711 37319 ft 428 kts 43°
2026-04-14 10:10 36.65529 -7.95046 37317 ft 428 kts 43°
2026-04-14 10:11 36.69372 -7.89382 37314 ft 428 kts 43°
2026-04-14 10:11 36.73215 -7.83705 37311 ft 428 kts 44°
2026-04-14 10:12 36.77052 -7.78010 37310 ft 429 kts 44°
2026-04-14 10:12 36.80887 -7.72312 37308 ft 429 kts 44°
2026-04-14 10:13 36.84727 -7.66618 37310 ft 429 kts 44°
2026-04-14 10:13 36.88542 -7.60953 37313 ft 429 kts 44°
2026-04-14 10:14 36.92365 -7.55257 37313 ft 426 kts 43°
2026-04-14 10:14 36.96164 -7.49576 37313 ft 426 kts 44°
2026-04-14 10:15 36.99958 -7.43891 37310 ft 426 kts 44°
2026-04-14 10:15 37.03755 -7.38195 37310 ft 426 kts 44°
2026-04-14 10:16 37.07566 -7.32518 37313 ft 425 kts 43°
2026-04-14 10:16 37.11384 -7.26857 37304 ft 425 kts 43°
2026-04-14 10:17 37.15202 -7.21191 37330 ft 425 kts 43°
2026-04-14 10:17 37.18983 -7.15558 37326 ft 424 kts 43°
2026-04-14 10:18 37.24655 -7.07062 37299 ft 423 kts 43°
2026-04-14 10:18 37.28433 -7.01398 37299 ft 422 kts 44°
2026-04-14 10:19 37.32204 -6.95737 37274 ft 423 kts 44°
2026-04-14 10:19 37.35981 -6.90066 37274 ft 423 kts 44°
2026-04-14 10:20 37.39754 -6.84385 37283 ft 423 kts 44°
2026-04-14 10:20 37.43524 -6.78696 37297 ft 423 kts 44°
2026-04-14 10:21 37.47280 -6.73014 37295 ft 422 kts 44°
2026-04-14 10:21 37.51008 -6.67368 37281 ft 422 kts 44°
2026-04-14 10:22 37.54759 -6.61684 37275 ft 422 kts 44°
2026-04-14 10:22 37.58513 -6.55987 37273 ft 422 kts 44°
2026-04-14 10:23 37.62264 -6.50280 37265 ft 422 kts 44°
2026-04-14 10:23 37.66010 -6.44571 37296 ft 422 kts 44°
2026-04-14 10:24 37.69747 -6.38849 37285 ft 422 kts 44°
2026-04-14 10:24 37.73456 -6.33167 37281 ft 422 kts 44°
2026-04-14 10:25 37.77191 -6.27447 37283 ft 422 kts 44°
2026-04-14 10:25 37.80920 -6.21721 37283 ft 421 kts 44°
2026-04-14 10:26 37.84039 -6.16920 37275 ft 421 kts 44°
2026-04-14 10:26 37.87738 -6.11229 37281 ft 421 kts 44°
2026-04-14 10:27 37.91450 -6.05493 37269 ft 419 kts 43°
2026-04-14 10:27 37.95137 -5.99788 37272 ft 418 kts 43°
2026-04-14 10:28 37.98791 -5.94035 37275 ft 419 kts 44°
2026-04-14 10:28 38.02406 -5.88231 37269 ft 419 kts 44°
2026-04-14 10:29 38.05992 -5.82459 37288 ft 419 kts 44°
2026-04-14 10:29 38.09608 -5.76664 37279 ft 419 kts 44°
2026-04-14 10:30 38.13225 -5.70872 37302 ft 419 kts 44°
2026-04-14 10:30 38.16837 -5.65081 37291 ft 417 kts 44°
2026-04-14 10:31 38.20442 -5.59292 37283 ft 417 kts 44°
2026-04-14 10:31 38.24030 -5.53490 37278 ft 416 kts 44°
2026-04-14 10:32 38.27585 -5.47735 37272 ft 416 kts 44°
2026-04-14 10:32 38.31160 -5.41952 37264 ft 415 kts 44°
2026-04-14 10:33 38.34731 -5.36174 37261 ft 415 kts 44°
2026-04-14 10:33 38.38298 -5.30382 37289 ft 415 kts 44°
2026-04-14 10:34 38.43620 -5.21722 37277 ft 413 kts 44°
2026-04-14 10:35 38.47156 -5.15947 37270 ft 413 kts 44°
2026-04-14 10:35 38.50712 -5.10193 37266 ft 409 kts 40°
2026-04-14 10:36 38.54677 -5.05126 37271 ft 405 kts 37°
2026-04-14 10:36 38.58699 -5.00090 37272 ft 405 kts 37°
2026-04-14 10:37 38.62724 -4.95045 37304 ft 405 kts 37°
2026-04-14 10:37 38.66722 -4.90018 37262 ft 402 kts 37°
2026-04-14 10:38 38.70703 -4.85001 37258 ft 402 kts 37°
2026-04-14 10:38 38.74681 -4.79978 37257 ft 402 kts 37°
2026-04-14 10:39 38.78660 -4.74946 37252 ft 402 kts 37°
2026-04-14 10:39 38.82637 -4.69906 37247 ft 402 kts 37°
2026-04-14 10:40 38.86623 -4.64850 37246 ft 403 kts 37°
2026-04-14 10:40 38.90607 -4.59789 37248 ft 403 kts 37°
2026-04-14 10:41 38.94563 -4.54755 37265 ft 403 kts 37°
2026-04-14 10:41 38.98540 -4.49683 37259 ft 402 kts 37°
2026-04-14 10:42 39.02513 -4.44609 37256 ft 402 kts 37°
2026-04-14 10:42 39.06474 -4.39543 37240 ft 401 kts 37°
2026-04-14 10:43 39.10437 -4.34464 37240 ft 402 kts 37°
2026-04-14 10:43 39.14373 -4.29408 37234 ft 402 kts 37°
2026-04-14 10:44 39.18328 -4.24308 37223 ft 402 kts 37°
2026-04-14 10:44 39.22291 -4.19212 37223 ft 402 kts 37°
2026-04-14 10:45 39.26251 -4.14113 37223 ft 402 kts 37°
2026-04-14 10:45 39.30203 -4.08990 37215 ft 402 kts 37°
2026-04-14 10:46 39.34155 -4.03869 37216 ft 402 kts 37°
2026-04-14 10:46 39.38115 -3.98744 37221 ft 403 kts 37°
2026-04-14 10:47 39.42064 -3.93597 37219 ft 403 kts 37°
2026-04-14 10:47 39.46016 -3.88449 37220 ft 403 kts 37°
2026-04-14 10:48 39.49969 -3.83305 37223 ft 403 kts 37°
2026-04-14 10:48 39.53881 -3.78198 37207 ft 400 kts 38°
2026-04-14 10:49 39.57793 -3.73074 37205 ft 400 kts 38°
2026-04-14 10:49 39.61712 -3.67940 37214 ft 400 kts 38°
2026-04-14 10:50 39.65634 -3.62796 37213 ft 401 kts 38°
2026-04-14 10:50 39.69550 -3.57650 37216 ft 401 kts 38°
2026-04-14 10:51 39.73465 -3.52489 37220 ft 401 kts 38°
2026-04-14 10:51 39.77362 -3.47366 37218 ft 399 kts 35°
2026-04-14 10:52 39.81788 -3.43215 37259 ft 391 kts 27°
2026-04-14 10:52 39.86321 -3.39345 37225 ft 388 kts 27°
2026-04-14 10:53 39.90831 -3.35482 37222 ft 388 kts 27°
2026-04-14 10:53 39.95338 -3.31596 37219 ft 388 kts 27°
2026-04-14 10:54 39.99848 -3.27706 37211 ft 389 kts 27°
2026-04-14 10:54 40.04362 -3.23811 37207 ft 390 kts 27°
2026-04-14 10:55 40.08854 -3.19927 37218 ft 390 kts 27°
2026-04-14 10:55 40.13379 -3.16011 37215 ft 390 kts 27°
2026-04-14 10:56 40.17905 -3.12080 37228 ft 391 kts 27°
2026-04-14 10:56 40.22431 -3.08144 37242 ft 391 kts 27°
2026-04-14 10:57 40.26956 -3.04206 37241 ft 389 kts 27°
2026-04-14 10:57 40.31431 -3.00296 37215 ft 385 kts 27°
2026-04-14 10:58 40.35900 -2.96396 37219 ft 386 kts 27°
2026-04-14 10:58 40.40364 -2.92492 37221 ft 386 kts 27°
2026-04-14 10:59 40.44805 -2.88603 37220 ft 386 kts 27°
2026-04-14 10:59 40.49276 -2.84671 37221 ft 387 kts 27°
2026-04-14 11:00 40.53745 -2.80737 37214 ft 386 kts 27°
2026-04-14 11:00 40.58214 -2.76795 37220 ft 387 kts 27°
2026-04-14 11:01 40.62684 -2.72856 37220 ft 387 kts 27°
2026-04-14 11:01 40.67158 -2.68913 37218 ft 387 kts 27°
2026-04-14 11:02 40.71592 -2.64987 37223 ft 385 kts 27°
2026-04-14 11:02 40.76022 -2.61059 37218 ft 384 kts 27°
2026-04-14 11:03 40.80453 -2.57128 37217 ft 384 kts 27°
2026-04-14 11:03 40.84880 -2.53182 37216 ft 384 kts 27°
2026-04-14 11:04 40.89307 -2.49234 37211 ft 384 kts 27°
2026-04-14 11:04 40.93733 -2.45286 37208 ft 384 kts 27°
2026-04-14 11:05 40.98165 -2.41322 37209 ft 385 kts 27°
2026-04-14 11:05 41.02598 -2.37340 37207 ft 386 kts 28°
2026-04-14 11:06 41.06880 -2.33004 37212 ft 389 kts 31°
2026-04-14 11:06 41.11034 -2.28462 37257 ft 389 kts 32°
2026-04-14 11:07 41.15197 -2.23925 37188 ft 386 kts 31°
2026-04-14 11:07 41.19383 -2.19462 37194 ft 386 kts 31°
2026-04-14 11:08 41.23583 -2.15006 37200 ft 386 kts 31°
2026-04-14 11:08 41.27774 -2.10546 37192 ft 386 kts 31°
2026-04-14 11:09 41.31967 -2.06061 37188 ft 387 kts 31°
2026-04-14 11:09 41.36161 -2.01558 37211 ft 387 kts 31°
2026-04-14 11:10 41.42415 -1.94852 37195 ft 386 kts 31°
2026-04-14 11:10 41.46590 -1.90349 37225 ft 386 kts 31°
2026-04-14 11:11 41.50748 -1.85863 37187 ft 384 kts 31°
2026-04-14 11:11 41.54899 -1.81375 37173 ft 384 kts 31°
2026-04-14 11:12 41.59050 -1.76891 37171 ft 384 kts 31°
2026-04-14 11:12 41.63190 -1.72402 37166 ft 384 kts 31°
2026-04-14 11:13 41.67339 -1.67902 37162 ft 384 kts 31°
2026-04-14 11:13 41.71483 -1.63395 37171 ft 384 kts 32°
2026-04-14 11:14 41.75627 -1.58875 37173 ft 384 kts 32°
2026-04-14 11:14 41.79774 -1.54344 37166 ft 385 kts 32°
2026-04-14 11:15 41.83930 -1.49801 37198 ft 385 kts 32°
2026-04-14 11:15 41.88083 -1.45262 37191 ft 385 kts 32°
2026-04-14 11:16 41.92214 -1.40744 37185 ft 386 kts 32°
2026-04-14 11:16 41.96368 -1.36175 37177 ft 386 kts 32°
2026-04-14 11:17 42.00527 -1.31588 37175 ft 386 kts 32°
2026-04-14 11:17 42.04681 -1.27001 37176 ft 386 kts 32°
2026-04-14 11:18 42.08142 -1.23185 37176 ft 386 kts 32°
2026-04-14 11:18 42.12297 -1.18595 37167 ft 386 kts 32°
2026-04-14 11:19 42.16446 -1.13999 37214 ft 387 kts 32°
2026-04-14 11:19 42.20598 -1.09391 37148 ft 386 kts 32°
2026-04-14 11:20 42.24748 -1.04779 37134 ft 386 kts 32°
2026-04-14 11:20 42.28901 -1.00164 37136 ft 387 kts 32°
2026-04-14 11:21 42.33053 -0.95523 37139 ft 387 kts 32°
2026-04-14 11:21 42.37208 -0.90876 37126 ft 388 kts 32°
2026-04-14 11:22 42.41343 -0.86248 37109 ft 389 kts 32°
2026-04-14 11:22 42.45045 -0.80770 37111 ft 401 kts 44°
2026-04-14 11:23 42.48440 -0.74771 37134 ft 401 kts 44°
2026-04-14 11:23 42.51846 -0.68770 37132 ft 402 kts 44°
2026-04-14 11:24 42.55260 -0.62772 37137 ft 401 kts 44°
2026-04-14 11:24 42.58665 -0.56772 37121 ft 401 kts 44°
2026-04-14 11:25 42.62058 -0.50747 37112 ft 402 kts 44°
2026-04-14 11:25 42.65433 -0.44751 37101 ft 403 kts 44°
2026-04-14 11:26 42.68834 -0.38696 37115 ft 403 kts 44°
2026-04-14 11:26 42.72248 -0.32620 37135 ft 404 kts 44°
2026-04-14 11:27 42.75658 -0.26536 37122 ft 404 kts 45°
2026-04-14 11:27 42.79068 -0.20431 37159 ft 405 kts 45°
2026-04-14 11:28 42.82540 -0.14415 37159 ft 403 kts 43°
2026-04-14 11:28 42.86114 -0.08554 37160 ft 402 kts 42°
2026-04-14 11:29 42.89670 -0.02737 37191 ft 402 kts 42°
2026-04-14 11:29 42.93236 0.03183 37183 ft 404 kts 44°
2026-04-14 11:30 42.96801 0.09148 37168 ft 406 kts 44°
2026-04-14 11:30 43.00373 0.15152 37171 ft 408 kts 44°
2026-04-14 11:31 43.03947 0.21168 37219 ft 408 kts 44°
2026-04-14 11:31 43.07522 0.27185 37214 ft 407 kts 44°
2026-04-14 11:32 43.11095 0.33201 37217 ft 407 kts 44°
2026-04-14 11:32 43.14668 0.39235 37250 ft 408 kts 45°
2026-04-14 11:33 43.18236 0.45271 37221 ft 408 kts 45°
2026-04-14 11:34 43.23562 0.54309 37229 ft 408 kts 45°
2026-04-14 11:34 43.27125 0.60375 37228 ft 408 kts 45°
2026-04-14 11:35 43.30679 0.66440 37224 ft 408 kts 45°
2026-04-14 11:35 43.34239 0.72508 37224 ft 408 kts 45°
2026-04-14 11:36 43.37791 0.78581 37252 ft 408 kts 45°
2026-04-14 11:36 43.41340 0.84665 37240 ft 408 kts 45°
2026-04-14 11:37 43.44863 0.90725 37240 ft 408 kts 45°
2026-04-14 11:37 43.48403 0.96834 37234 ft 408 kts 45°
2026-04-14 11:38 43.51942 1.02950 37230 ft 408 kts 45°
2026-04-14 11:38 43.55482 1.09079 37233 ft 409 kts 45°
2026-04-14 11:39 43.59022 1.15215 37261 ft 409 kts 46°
2026-04-14 11:39 43.62558 1.21352 37252 ft 409 kts 45°
2026-04-14 11:40 43.66090 1.27498 37242 ft 409 kts 46°
2026-04-14 11:40 43.69600 1.33684 37247 ft 410 kts 47°
2026-04-14 11:41 43.72998 1.40026 37246 ft 411 kts 48°
2026-04-14 11:41 43.76359 1.46417 37231 ft 411 kts 48°
2026-04-14 11:42 43.79715 1.52762 37255 ft 411 kts 47°
2026-04-14 11:42 43.83101 1.59140 37236 ft 411 kts 47°
2026-04-14 11:43 43.86494 1.65531 37226 ft 412 kts 47°
2026-04-14 11:43 43.89889 1.71940 37210 ft 412 kts 48°
2026-04-14 11:44 43.93274 1.78354 37208 ft 412 kts 48°
2026-04-14 11:44 43.96643 1.84788 37205 ft 413 kts 49°
2026-04-14 11:45 43.99929 1.91340 37229 ft 413 kts 50°
2026-04-14 11:45 44.03152 1.97905 37204 ft 415 kts 50°
2026-04-14 11:46 44.06413 2.04525 37187 ft 415 kts 49°
2026-04-14 11:46 44.09697 2.11134 37180 ft 415 kts 49°
2026-04-14 11:47 44.12981 2.17746 37173 ft 415 kts 49°
2026-04-14 11:47 44.16260 2.24368 37173 ft 415 kts 50°
2026-04-14 11:48 44.19529 2.31007 37190 ft 416 kts 50°
2026-04-14 11:48 44.22801 2.37681 37162 ft 417 kts 50°
2026-04-14 11:49 44.26053 2.44321 37145 ft 418 kts 50°
2026-04-14 11:49 44.29329 2.51023 37145 ft 418 kts 50°
2026-04-14 11:50 44.32612 2.57744 37160 ft 419 kts 50°
2026-04-14 11:50 44.35887 2.64474 37161 ft 419 kts 50°
2026-04-14 11:51 44.40806 2.74603 37145 ft 420 kts 51°
2026-04-14 11:51 44.44070 2.81342 37130 ft 421 kts 51°
2026-04-14 11:52 44.47358 2.88147 37130 ft 422 kts 51°
2026-04-14 11:52 44.50641 2.94971 37137 ft 423 kts 51°
2026-04-14 11:53 44.53923 3.01811 37149 ft 423 kts 51°
2026-04-14 11:53 44.57206 3.08658 37147 ft 424 kts 51°
2026-04-14 11:54 44.60494 3.15543 37146 ft 425 kts 52°
2026-04-14 11:54 44.63590 3.22639 37135 ft 428 kts 56°
2026-04-14 11:55 44.66457 3.29990 37146 ft 429 kts 57°
2026-04-14 11:55 44.69311 3.37368 37137 ft 429 kts 56°
2026-04-14 11:56 44.72218 3.44696 37150 ft 429 kts 56°
2026-04-14 11:56 44.75131 3.51963 37143 ft 429 kts 56°
2026-04-14 11:57 44.78055 3.59290 37148 ft 429 kts 56°
2026-04-14 11:57 44.80962 3.66633 37150 ft 429 kts 56°
2026-04-14 11:58 44.83864 3.73984 37150 ft 429 kts 56°
2026-04-14 11:58 44.86768 3.81341 37168 ft 429 kts 56°
2026-04-14 11:59 44.89661 3.88717 37150 ft 430 kts 56°
2026-04-14 11:59 44.92555 3.96107 37143 ft 431 kts 56°
2026-04-14 12:00 44.95452 4.03512 37140 ft 431 kts 56°
2026-04-14 12:00 44.98345 4.10925 37139 ft 431 kts 56°
2026-04-14 12:01 45.01214 4.18314 37143 ft 431 kts 57°
2026-04-14 12:01 45.04099 4.25770 37153 ft 432 kts 57°
2026-04-14 12:02 45.06994 4.33224 37136 ft 433 kts 57°
2026-04-14 12:02 45.09890 4.40702 37144 ft 434 kts 57°
2026-04-14 12:03 45.12778 4.48208 37141 ft 434 kts 57°
2026-04-14 12:03 45.15658 4.55740 37148 ft 435 kts 57°
2026-04-14 12:04 45.18535 4.63280 37158 ft 435 kts 57°
2026-04-14 12:04 45.21415 4.70836 37150 ft 436 kts 57°
2026-04-14 12:05 45.24307 4.78404 37144 ft 437 kts 57°
2026-04-14 12:05 45.27177 4.85952 37143 ft 437 kts 58°
2026-04-14 12:06 45.30057 4.93572 37150 ft 438 kts 57°
2026-04-14 12:06 45.32934 5.01199 37152 ft 438 kts 58°
2026-04-14 12:07 45.35807 5.08840 37161 ft 439 kts 58°
2026-04-14 12:07 45.38682 5.16508 37154 ft 440 kts 58°
2026-04-14 12:08 45.41552 5.24194 37152 ft 440 kts 58°
2026-04-14 12:08 45.44428 5.31900 37153 ft 440 kts 58°
2026-04-14 12:09 45.47283 5.39556 37153 ft 440 kts 57°
2026-04-14 12:09 45.50912 5.46447 37157 ft 432 kts 40°
2026-04-14 12:10 45.55387 5.52142 37140 ft 432 kts 39°
2026-04-14 12:10 45.59877 5.57872 37139 ft 433 kts 39°
2026-04-14 12:11 45.64356 5.63624 37139 ft 433 kts 39°
2026-04-14 12:11 45.68843 5.69388 37139 ft 434 kts 39°
2026-04-14 12:12 45.73341 5.75162 37144 ft 435 kts 39°
2026-04-14 12:12 45.77082 5.79970 37146 ft 435 kts 39°
2026-04-14 12:13 45.82322 5.86699 37151 ft 435 kts 39°
2026-04-14 12:13 45.86830 5.92510 37160 ft 436 kts 40°
2026-04-14 12:14 45.90574 5.97361 37149 ft 436 kts 40°
2026-04-14 12:14 45.95083 6.03206 37145 ft 437 kts 40°
2026-04-14 12:15 45.99596 6.09063 37146 ft 437 kts 40°
2026-04-14 12:15 46.04115 6.14941 37146 ft 438 kts 40°
2026-04-14 12:16 46.08630 6.20820 37143 ft 438 kts 40°
2026-04-14 12:16 46.13054 6.26862 37145 ft 439 kts 42°
2026-04-14 12:17 46.17372 6.33085 37147 ft 439 kts 43°
2026-04-14 12:17 46.21681 6.39330 37151 ft 439 kts 43°
2026-04-14 12:18 46.26012 6.45550 37134 ft 439 kts 43°
2026-04-14 12:18 46.30361 6.51761 37129 ft 440 kts 43°
2026-04-14 12:19 46.34696 6.57959 37132 ft 440 kts 43°
2026-04-14 12:19 46.39048 6.64214 37142 ft 441 kts 43°
2026-04-14 12:20 46.43404 6.70485 37132 ft 441 kts 43°
2026-04-14 12:20 46.47757 6.76767 37141 ft 442 kts 43°
2026-04-14 12:21 46.52111 6.83075 37152 ft 442 kts 43°
2026-04-14 12:21 46.56389 6.89482 37152 ft 443 kts 49°
2026-04-14 12:22 46.60271 6.96466 37148 ft 444 kts 49°
2026-04-14 12:22 46.64156 7.03468 37162 ft 445 kts 49°
2026-04-14 12:23 46.68044 7.10472 37165 ft 445 kts 49°
2026-04-14 12:23 46.71911 7.17457 37160 ft 445 kts 49°
2026-04-14 12:24 46.75792 7.24499 37153 ft 446 kts 49°
2026-04-14 12:24 46.79666 7.31553 37155 ft 446 kts 49°
2026-04-14 12:25 46.83534 7.38634 37142 ft 446 kts 50°
2026-04-14 12:25 46.87413 7.45737 37138 ft 447 kts 50°
2026-04-14 12:26 46.91299 7.52867 37163 ft 448 kts 50°
2026-04-14 12:26 46.95182 7.60012 37163 ft 449 kts 50°
2026-04-14 12:27 46.99066 7.67172 37169 ft 449 kts 50°
2026-04-14 12:27 47.02945 7.74360 37170 ft 449 kts 50°
2026-04-14 12:28 47.06818 7.81562 37184 ft 450 kts 50°
2026-04-14 12:28 47.10686 7.88771 37179 ft 450 kts 50°
2026-04-14 12:29 47.14422 7.96139 37173 ft 451 kts 56°
2026-04-14 12:29 47.17722 8.03896 37173 ft 451 kts 56°
2026-04-14 12:30 47.21048 8.11698 37172 ft 451 kts 56°
2026-04-14 12:30 47.24382 8.19525 37177 ft 451 kts 56°
2026-04-14 12:31 47.27717 8.27342 37173 ft 451 kts 53°
2026-04-14 12:31 47.32004 8.33979 37169 ft 448 kts 35°
2026-04-14 12:32 47.37430 8.38410 37157 ft 447 kts 24°
2026-04-14 12:32 47.43050 8.42362 37154 ft 448 kts 25°
2026-04-14 12:33 47.48683 8.46359 37190 ft 449 kts 25°
2026-04-14 12:33 47.54282 8.50339 37192 ft 449 kts 25°
2026-04-14 12:34 47.59921 8.54350 37188 ft 450 kts 25°
2026-04-14 12:34 47.65559 8.58374 37181 ft 450 kts 25°
2026-04-14 12:35 47.71202 8.62407 37175 ft 450 kts 25°
2026-04-14 12:35 47.76842 8.66463 37169 ft 450 kts 25°
2026-04-14 12:36 47.82476 8.70520 37168 ft 450 kts 25°
2026-04-14 12:36 47.88105 8.74583 37166 ft 450 kts 25°
2026-04-14 12:37 47.93734 8.78657 37169 ft 450 kts 25°
2026-04-14 12:37 47.99369 8.82725 37168 ft 450 kts 25°
2026-04-14 12:38 48.07814 8.88852 37163 ft 450 kts 25°
2026-04-14 12:39 48.13447 8.92967 37169 ft 451 kts 24°
2026-04-14 12:39 48.19395 8.95714 37166 ft 448 kts
2026-04-14 12:40 48.25591 8.96671 37168 ft 448 kts
2026-04-14 12:40 48.31748 8.97611 36855 ft 447 kts
2026-04-14 12:40 48.34872 8.98087 36382 ft 442 kts
2026-04-14 12:41 48.37858 8.98543 36145 ft 433 kts
2026-04-14 12:41 48.40831 8.98994 35768 ft 427 kts
2026-04-14 12:41 48.43777 8.99439 35365 ft 423 kts
2026-04-14 12:41 48.46686 8.99882 34957 ft 419 kts
2026-04-14 12:42 48.49572 9.00325 34557 ft 415 kts
2026-04-14 12:42 48.52431 9.00763 34143 ft 411 kts
2026-04-14 12:42 48.55266 9.01196 33653 ft 408 kts
2026-04-14 12:42 48.58080 9.01623 33140 ft 405 kts
2026-04-14 12:43 48.60876 9.02048 32627 ft 403 kts
2026-04-14 12:43 48.63659 9.02489 32116 ft 401 kts
2026-04-14 12:43 48.66422 9.03046 31616 ft 400 kts
2026-04-14 12:43 48.69164 9.03698 31122 ft 398 kts
2026-04-14 12:44 48.71889 9.04398 30637 ft 396 kts
2026-04-14 12:44 48.74601 9.05106 30139 ft 395 kts
2026-04-14 12:44 48.77309 9.05796 29580 ft 393 kts
2026-04-14 12:45 48.82677 9.07106 28568 ft 388 kts
2026-04-14 12:45 48.85334 9.07738 28083 ft 385 kts
2026-04-14 12:45 48.87978 9.08362 27600 ft 383 kts
2026-04-14 12:45 48.90608 9.08892 27131 ft 380 kts
2026-04-14 12:46 48.93232 9.09297 26669 ft 378 kts
2026-04-14 12:46 48.95883 9.09675 25594 ft 392 kts
2026-04-14 12:46 48.98672 9.10071 24277 ft 413 kts
2026-04-14 12:46 49.01607 9.10471 22936 ft 431 kts
2026-04-14 12:47 49.04634 9.10873 21641 ft 443 kts
2026-04-14 12:47 49.07741 9.11283 21040 ft 455 kts
2026-04-14 12:47 49.10909 9.11700 20573 ft 458 kts
2026-04-14 12:47 49.14047 9.12112 20130 ft 457 kts
2026-04-14 12:48 49.17200 9.12529 19687 ft 454 kts
2026-04-14 12:48 49.20337 9.12945 19250 ft 450 kts
2026-04-14 12:48 49.23446 9.13357 18821 ft 447 kts
2026-04-14 12:48 49.26537 9.13767 18379 ft 444 kts
2026-04-14 12:49 49.29600 9.14174 17903 ft 441 kts
2026-04-14 12:49 49.32644 9.14579 17423 ft 438 kts
2026-04-14 12:49 49.35674 9.14845 16953 ft 434 kts
2026-04-14 12:49 49.38679 9.15160 16484 ft 432 kts
2026-04-14 12:50 49.41667 9.15506 16022 ft 429 kts
2026-04-14 12:50 49.47169 9.18378 15113 ft 412 kts 26°
2026-04-14 12:50 49.49700 9.20356 14677 ft 404 kts 26°
2026-04-14 12:51 49.52192 9.22256 14257 ft 396 kts 21°
2026-04-14 12:51 49.54778 9.23540 13810 ft 387 kts 12°
2026-04-14 12:51 49.57388 9.24473 13328 ft 381 kts 12°
2026-04-14 12:51 49.59953 9.25384 12853 ft 376 kts 11°
2026-04-14 12:52 49.62491 9.26285 12393 ft 371 kts 12°
2026-04-14 12:52 49.64960 9.27166 11931 ft 367 kts 12°
2026-04-14 12:52 49.67431 9.28052 11474 ft 362 kts 12°
2026-04-14 12:52 49.69870 9.28929 11029 ft 358 kts 12°
2026-04-14 12:53 49.72281 9.29796 10585 ft 354 kts 12°
2026-04-14 12:53 49.74662 9.30649 10233 ft 347 kts 12°
2026-04-14 12:53 49.76966 9.31478 10155 ft 332 kts 12°
2026-04-14 12:53 49.79159 9.32269 10167 ft 315 kts 12°
2026-04-14 12:54 49.81243 9.33023 10169 ft 300 kts 12°
2026-04-14 12:54 49.83267 9.33754 10173 ft 298 kts 12°
2026-04-14 12:54 49.85286 9.34462 10167 ft 296 kts
2026-04-14 12:54 49.87337 9.34629 10167 ft 295 kts 354°
2026-04-14 12:55 49.89352 9.34269 10168 ft 295 kts 351°
2026-04-14 12:55 49.91392 9.33892 10169 ft 295 kts 352°
2026-04-14 12:55 49.93432 9.33521 10170 ft 295 kts 352°
2026-04-14 12:55 49.95473 9.33154 10170 ft 295 kts 353°
2026-04-14 12:56 49.97516 9.32791 10172 ft 296 kts 352°
2026-04-14 12:56 49.99490 9.31995 10171 ft 292 kts 330°
2026-04-14 12:56 50.01028 9.30015 10172 ft 288 kts 304°
2026-04-14 12:56 50.01828 9.27216 10177 ft 284 kts 278°
2026-04-14 12:57 50.01760 9.24187 10175 ft 280 kts 257°
2026-04-14 12:57 50.01308 9.21232 10178 ft 281 kts 254°
2026-04-14 12:57 50.00817 9.18303 10064 ft 278 kts 254°
2026-04-14 12:57 50.00327 9.15398 9632 ft 277 kts 253°
2026-04-14 12:58 49.99821 9.12504 9207 ft 277 kts 254°
2026-04-14 12:58 49.99288 9.09618 8755 ft 278 kts 254°
2026-04-14 12:58 49.98736 9.06740 8341 ft 278 kts 253°
2026-04-14 12:58 49.98159 9.03878 8173 ft 278 kts 253°
2026-04-14 12:59 49.97583 9.01043 8183 ft 279 kts 254°
2026-04-14 12:59 49.96993 8.98164 8183 ft 280 kts 254°
2026-04-14 12:59 49.96401 8.95283 8184 ft 280 kts 255°
2026-04-14 12:59 49.95811 8.92403 8186 ft 280 kts 253°
2026-04-14 13:00 49.95229 8.89522 8184 ft 280 kts 254°
2026-04-14 13:00 49.94645 8.86634 8188 ft 280 kts 254°
2026-04-14 13:00 49.94055 8.83755 8189 ft 280 kts 255°
2026-04-14 13:00 49.93457 8.80885 8188 ft 280 kts 254°
2026-04-14 13:01 49.92854 8.78007 8190 ft 280 kts 253°
2026-04-14 13:01 49.92263 8.75134 8189 ft 280 kts 253°
2026-04-14 13:01 49.91678 8.72294 8176 ft 269 kts 253°
2026-04-14 13:01 49.91133 8.69618 8175 ft 253 kts 255°
2026-04-14 13:02 49.90596 8.67055 8179 ft 248 kts 255°
2026-04-14 13:02 49.90245 8.65372 8183 ft 247 kts 254°
2026-04-14 13:02 49.89712 8.62838 8181 ft 247 kts 254°
2026-04-14 13:02 49.89170 8.60312 8110 ft 246 kts 253°
2026-04-14 13:03 49.88641 8.57809 7765 ft 243 kts 253°
2026-04-14 13:03 49.88107 8.55309 7320 ft 245 kts 253°
2026-04-14 13:03 49.87576 8.52804 6928 ft 244 kts 253°
2026-04-14 13:03 49.87055 8.50302 6529 ft 243 kts 253°
2026-04-14 13:04 49.86529 8.47816 6121 ft 243 kts 254°
2026-04-14 13:04 49.86001 8.45336 5715 ft 241 kts 253°
2026-04-14 13:04 49.85473 8.42869 5319 ft 240 kts 254°
2026-04-14 13:04 49.84941 8.40417 4922 ft 240 kts 254°
2026-04-14 13:05 49.84407 8.37971 4524 ft 239 kts 253°
2026-04-14 13:05 49.84088 8.35490 4156 ft 233 kts 275°
2026-04-14 13:05 49.84306 8.33030 3999 ft 230 kts 283°
2026-04-14 13:05 49.84614 8.30597 4007 ft 231 kts 283°
2026-04-14 13:06 49.84935 8.28156 4008 ft 231 kts 284°
2026-04-14 13:06 49.85258 8.25718 4004 ft 231 kts 285°
2026-04-14 13:06 49.85943 8.23564 4006 ft 226 kts 314°
2026-04-14 13:06 49.87105 8.21932 4014 ft 225 kts 322°
2026-04-14 13:07 49.88327 8.20419 4011 ft 225 kts 324°
2026-04-14 13:07 49.89555 8.18918 4012 ft 224 kts 323°
2026-04-14 13:07 49.90846 8.17584 3995 ft 223 kts 340°
2026-04-14 13:07 49.92342 8.17403 3995 ft 210 kts 14°
2026-04-14 13:08 49.93566 8.18422 3995 ft 192 kts 37°
2026-04-14 13:08 49.94467 8.19884 4014 ft 187 kts 52°
2026-04-14 13:08 49.95077 8.21639 4056 ft 185 kts 66°
2026-04-14 13:08 49.95528 8.23498 4023 ft 183 kts 66°
2026-04-14 13:09 49.95975 8.25333 4004 ft 177 kts 67°
2026-04-14 13:09 49.96391 8.27048 3880 ft 165 kts 67°
2026-04-14 13:09 49.96792 8.28700 3698 ft 162 kts 66°
2026-04-14 13:09 49.97190 8.30337 3499 ft 161 kts 66°
2026-04-14 13:10 49.97584 8.31964 3274 ft 162 kts 66°
2026-04-14 13:10 49.97978 8.33594 3059 ft 161 kts 66°
2026-04-14 13:10 49.98375 8.35235 2838 ft 162 kts 66°
2026-04-14 13:10 49.98771 8.36871 2615 ft 162 kts 67°
2026-04-14 13:11 49.99163 8.38495 2401 ft 160 kts 66°
2026-04-14 13:11 49.99548 8.40091 2177 ft 159 kts 66°
2026-04-14 13:11 49.99937 8.41702 1963 ft 159 kts 68°
2026-04-14 13:11 50.00324 8.43311 1739 ft 159 kts 67°
2026-04-14 13:12 50.00697 8.44863 1525 ft 146 kts 65°
2026-04-14 13:12 50.01048 8.46315 1291 ft 144 kts 66°
2026-04-14 13:12 50.01394 8.47759 1049 ft 143 kts 68°
2026-04-14 13:12 50.01748 8.49207 855 ft 145 kts 66°
2026-04-14 13:13 50.02099 8.50693 757 ft 147 kts 66°
2026-04-14 13:13 50.02465 8.52175 552 ft 146 kts 66°
2026-04-14 13:13 50.02814 8.53650 357 ft 145 kts 66°
2026-04-14 13:13 50.03134 8.55005 351 ft 118 kts 69°
2026-04-14 13:14 50.03372 8.55998 350 ft 73 kts 69°
2026-04-14 13:14 50.03502 8.56541 360 ft 38 kts 69°
2026-04-14 13:14 50.03569 8.56809 357 ft 17 kts 63°
2026-04-14 13:14 50.03626 8.56961 359 ft 16 kts 52°
2026-04-14 13:15 50.03707 8.57092 357 ft 16 kts 40°
2026-04-14 13:15 50.03799 8.57209 359 ft 18 kts 39°
2026-04-14 13:15 50.03888 8.57324 361 ft 6 kts 38°
2026-04-14 13:15 50.03890 8.57327 361 ft 0 kts 38°
2026-04-14 13:18 50.03923 8.57366 367 ft 15 kts 38°
2026-04-14 13:18 50.03993 8.57570 366 ft 27 kts 69°
2026-04-14 13:19 50.04059 8.57839 369 ft 26 kts 69°
2026-04-14 13:19 50.04099 8.58010 370 ft 14 kts 70°
2026-04-14 13:19 50.04130 8.58142 371 ft 12 kts 70°
2026-04-14 13:19 50.04159 8.58262 371 ft 11 kts 69°
2026-04-14 13:20 50.04186 8.58369 373 ft 10 kts 69°
2026-04-14 13:20 50.04209 8.58465 370 ft 9 kts 69°
2026-04-14 13:20 50.04230 8.58551 371 ft 8 kts 69°
2026-04-14 13:20 50.04249 8.58627 370 ft 7 kts 70°
2026-04-14 13:21 50.04263 8.58688 372 ft 5 kts 70°
2026-04-14 13:21 50.04270 8.58719 372 ft 1 kts 70°
2026-04-14 13:21 50.04271 8.58721 372 ft 0 kts 70°
2026-04-14 13:22 50.04279 8.58756 371 ft 9 kts 70°
2026-04-14 13:22 50.04312 8.58897 375 ft 18 kts 70°
2026-04-14 13:23 50.04369 8.59136 377 ft 30 kts 69°
2026-04-14 13:23 50.04410 8.59302 376 ft 7 kts 69°
2026-04-14 13:23 50.04427 8.59371 376 ft 7 kts 69°
2026-04-14 13:23 50.04445 8.59437 376 ft 9 kts 63°
2026-04-14 13:24 50.04469 8.59470 375 ft 0 kts 38°
2026-04-14 13:24 50.04478 8.59469 375 ft 1 kts
2026-04-14 13:24 50.04490 8.59469 375 ft 2 kts
2026-04-14 13:25 50.04509 8.59470 374 ft 3 kts
2026-04-14 13:25 50.04533 8.59470 374 ft 4 kts
2026-04-14 13:26 50.04651 8.59458 372 ft 7 kts 351°
2026-04-14 13:26 50.04697 8.59444 372 ft 7 kts 348°
2026-04-14 13:26 50.04740 8.59421 372 ft 6 kts 340°
2026-04-14 13:26 50.04770 8.59404 372 ft 0 kts 340°
2026-04-14 13:31 50.04807 8.59378 371 ft 14 kts 329°
2026-04-14 13:31 50.04882 8.59282 368 ft 11 kts 336°
2026-04-14 13:32 50.04928 8.59257 367 ft 1 kts 340°
2026-04-14 13:32 50.04929 8.59256 366 ft 0 kts 340°